Location: Curupao
(10.4996°N, 66.6442°W)
Time: 16:28:55
(UTC+00:00)

METEOR 1-22 DEB - Visible Passes

Search period start: 07 October 2024 00:00
Search period end: 17 October 2024 00:00
Orbit: 779 x 943 km, 81.3° (Epoch: 06 October)

Date Brightness Start Highest point End Pass type
(mag) Time Alt. Az. Time Alt. Az. Time Alt. Az.
09 Oct ? 00:33:30 10° SSW 00:34:59 18° SSW 00:34:59 18° SSW visible
10 Oct ? 00:24:34 10° SSW 00:27:50 33° SW 00:27:50 33° SW visible
11 Oct ? 00:15:37 10° SSW 00:20:50 49° W 00:21:00 48° WNW visible
12 Oct ? 00:06:40 10° SSW 00:11:53 50° W 00:14:48 24° NNW visible
12 Oct ? 23:57:44 10° SSW 00:02:57 52° W 00:08:02 10° N visible
13 Oct ? 23:48:47 10° SSW 23:54:00 53° W 23:59:06 10° N visible
14 Oct ? 23:39:50 10° SSW 23:45:04 55° W 23:50:11 10° N visible
15 Oct ? 23:30:54 10° SSW 23:36:07 57° W 23:41:15 10° N visible
16 Oct ? 23:21:56 10° SSW 23:27:11 59° W 23:32:19 10° N visible
